CZ-6A DEB, 55536

Orbit data source: Space-Track

CZ-6A DEB, 55536 is space debris in SSO originally from a launch on Fri, 11 Nov 2022 UTC launched from the Taiyaun Space Center, China (TSC). Debris objects in space refer to the collection of defunct objects orbiting the Earth. Examples of debris include non-operational satellites, rocket bodies, and fragments generated from explosions, collisions, or faulty payload assembly.

Loading next visibility...
Identifier
55536, 2022-151YJ
Orbit
SSO
Country
Flag of CNCN / PRC
Related business
Manufacturer
SAST
Mission
Spacecraft
Bus & Motor
Unknown
Mass
Unknown
Launch date (UTC)
2022-11-11 (3 years ago)
Launch vehicle
Unknown
Launch site
Taiyaun Space Center, China (TSC)
Object type
Payload
Rocket body
Debris
Shape & HBR
Unknown shape, 0.1 m
Radar Cross Section
Small (<0.1 m²)

Expand to show TLE details & history
Last TLE update: 16 hours ago

TLE from 16 hours ago
0 CZ-6A DEB
1 55536U 22151YJ  25352.93262181  .00004011  00000-0  17356-2 0  9994
2 55536  98.8018 359.1472 0045167 114.1378 246.4533 14.24335162154760
Epoch: 2025-12-18T22:22Z
TLE epoch observation values (Epoch: 2025-12-18T22:22:58.524Z)
Latitude
-0.00006°
Longitude
-64.37767°
Altitude
826.744 km
Speed
7.433 km/s
True Right ascension
23h 56m 35s
True Declination
0° 00' 00"
Sunlit
Object was in daylight at epoch
Visualization orbit readout
Latitude
Unknown
Longitude
Unknown
Altitude
Unknown
Speed
Unknown
Apparent Right ascension
Unknown
Apparent Declination
Unknown
Sunlit
N/A
Visualization observer readout
Local Sidereal Time
13:33:07
Azimuth
Unknown
Elevation
Unknown
Doppler factor
Unknown
Orbital elements
Apogee altitude
840.343 km
Perigee altitude
775.429 km
Semi-major axis
7,186.023 km
Eccentricity
0.00452
Inclination
98.8018°
RAAN
359.1472°
Arg. of periapsis
114.1378°
True anomaly
245.97989°
Mean anomaly
246.4533°
Eccentric anomaly
246.21649°
Mean motion
3.56295 °/min
Orbital period
101.04 mins
BSTAR
0.0017356
Loading maneuver chart data...
Computing Atmospheric mass density...
Loading historical data...
Loading historical data...
Loading historical data...
Loading historical data...
Loading historical data...
Loading historical data...
Loading historical data...

Documentation

Showing up to 5 results
|